Location: *
(53.9002°N, 27.5624°E)
Time: 08:59:41
(UTC+00:00)

ASTEX 1 - Pass Details

Date: 12 November 2019
Orbit: 721 x 742 km, 92.7° (Epoch: 05 December)

Event Time Altitude Azimuth Distance (km) Brightness Sun altitude
Rises 15:45:17 0° 3° (N) 3,197 6.6 -13.0°
Reaches altitude 10° 15:47:38 10° 359° (N) 2,270 5.8 -13.3°
Maximum altitude 15:52:32 56° 282° (WNW) 882 4.2 -14.1°
Drops below altitude 10° 15:57:25 10° 205° (SSW) 2,251 6.4 -14.8°
Sets 15:59:44 0° 202° (SSW) 3,168 7.1 -15.1°
